Regional Weather Roundup
Issued by NWS San Diego, CA

Home | Current Version | Previous Version | Text Only | Print | Product List | Glossary On
Versions: 1 2 3 4 5 6 7 8 9 10 11 12 13 14 15 16 17 18 19 20 21 22 23 24 25 26 27 28 29 30 31 32 33 34 35 36 37 38 39 40 41 42 43 44 45 46 47 48 49 50
000
ASUS46 KSGX 241611
RWRSGX

SAN DIEGO HOURLY WEATHER ROUNDUP
NATIONAL WEATHER SERVICE SAN DIEGO CA
900 AM PDT SAT JUN 24 2017

NOTE: "FAIR" INDICATES FEW OR NO CLOUDS BELOW 12,000 FEET WITH NO
SIGNIFICANT WEATHER AND/OR OBSTRUCTIONS TO VISIBILITY.

CAZ042-043-060-061-PZZ750-775-241700-

GREATER SAN DIEGO AREA

CITY           SKY/WX    TMP DP  RH WIND       PRES   REMARKS
SAN DIEGO AP   CLOUDY    66  62  87 NW5       29.93R
NATIONAL CITY    N/A     66  63  90 NW3       29.93R
CHULA VISTA      N/A     66  63  92 NE2       29.83F
IMPERIAL BEACH CLOUDY    68  61  78 NE9       29.91S
BROWN FIELD    CLOUDY    65  62  90 VRB3      29.91S
MIRAMAR MCAS   CLOUDY    66  60  81 N5        29.91S
MONTGOMERY FLD CLOUDY    66  61  84 N7        29.92S HAZE
GILLESPIE FLD  CLOUDY    64  61  88 CALM      29.92S FOG

$$

NORTH SAN DIEGO COUNTY

CITY           SKY/WX    TMP DP  RH WIND       PRES   REMARKS
CAMP PENDLETON CLOUDY    64  62  93 CALM      29.91S FOG
OCEANSIDE AP   CLOUDY    66  62  87 CALM      29.90F FOG
OCEANSIDE HBR    N/A     64  62  94 SW2       29.93S
VISTA            N/A     63  57  81 CALM      29.90R
CARLSBAD       CLOUDY    63  62  97 CALM      29.91S
DEL MAR          N/A     64  62  94 CALM      29.93S
LA JOLLA SCRIP   N/A     63  62  97 CALM      29.91S
FALLBROOK        N/A     62  62 100 CALM      29.94S
ESCONDIDO        N/A     64  61  90 CALM      29.92R
SAN MARCOS       N/A     62  58  87 CALM      29.93S
POWAY            N/A     64  60  87 CALM      29.92S

$$

EAST SAN DIEGO COUNTY

CITY           SKY/WX    TMP DP  RH WIND       PRES   REMARKS
RAMONA         MOSUNNY   66  62  87 NW8       29.93R
SANTEE LAKES     N/A     64  61  91 CALM      29.91R
LA MESA          N/A     63  61  94 CALM      29.84S
JAMUL            N/A     62  60  93 CALM      29.91R
DESCANSO N       N/A     95  48  19 NE2       29.75F
CAMPO            N/A     83  52  34 SW8       29.91F

$$

ORANGE COUNTY AND THE LOS ANGELES BASIN

CITY           SKY/WX    TMP DP  RH WIND       PRES   REMARKS
JOHN WAYNE AP  PTSUNNY   65  61  87 CALM      29.90F FOG
LAKE FOREST FR   N/A     67  59  77 CALM      29.80S
HUNTINGTON BCH   N/A     64  62  94 CALM      29.91
LOS ALAMITOS   PTSUNNY   64  60  87 N5        29.90S
FULLERTON      CLOUDY    66  61  84 CALM      29.90S HAZE
LONG BEACH     MOSUNNY   69  59  70 N7        29.90S
L.A. AP        PTSUNNY   64  60  87 W6        29.91S
L.A. DOWNTOWN  CLOUDY    65  60  84 CALM      29.90S

$$

THE INLAND EMPIRE

CITY           SKY/WX    TMP DP  RH WIND       PRES   REMARKS
CORONA         MOSUNNY   70  61  73 W10       29.90R
CHINO          PTSUNNY   74  60  61 SW9       29.91R
ONTARIO        PTSUNNY   72  60  66 W9        29.91R
SAN BERNARDINO PTSUNNY   81  55  41 CALM      29.90R HAZE
RIVERSIDE AP   MOSUNNY   71  62  73 W9        29.90R
MORENO VALLEY    N/A     80  66  62 W2        28.03R
MARCH ARB      MOSUNNY   78  60  53 CALM      29.90S
HORSETHIEF CYN   N/A     80  56  43 E5        29.85S
PERRIS           N/A     76  63  63 S3        29.89S
HEMET EAST       N/A     80  57  44 CALM      29.87S
FRENCH VALLEY  FAIR      72  59  64 S6        29.91S
TEMECULA         N/A     69  63  81 S6        29.95S

$$

SAN BERNARDINO AND RIVERSIDE COUNTY MOUNTAINS

CITY           SKY/WX    TMP DP  RH WIND       PRES   REMARKS
BIG BEAR AP    PTSUNNY   77  32  19 SW6       30.31S
ANGELUS OAKS     N/A     76  51  40 CALM      29.69F
PINE COVE        N/A     79  40  24 NW3       29.79S

$$

SOUTHERN DESERT INCLUDING THE COACHELLA VALLEY

CITY           SKY/WX    TMP DP  RH WIND       PRES   REMARKS
PALM SPRINGS   PTSUNNY   94  60  32 S5        29.77S
THOUSAND PALMS   N/A     94  65  38 E5        29.72S HX  95
PALM DESERT      N/A     93  69  45 CALM      30.07S HX  97
THERMAL        SUNNY     93  64  38 E3        29.71S
BLYTHE         SUNNY     95  55  26 N5        29.74S
IMPERIAL AP    SUNNY     89  71  55 CALM      29.71F HX  95
EL CENTRO NAS  SUNNY     89  67  47 NW3       29.73F
YUMA AZ        SUNNY     93  50  23 S7        29.74R
MEXICALI       SUNNY     88  66  48 SE5       29.73

$$

UPPER DESERT

CITY           SKY/WX    TMP DP  RH WIND       PRES   REMARKS
VICTORVILLE AP PTSUNNY   93  41  16 W8        29.98F
HESPERIA         N/A     86  47  25 S3        29.91R
PALMDALE       MOSUNNY   93  51  23 W10       29.97S
LANCASTER      MOSUNNY   95  49  20 NW10      29.95F
EDWARDS AFB    PTSUNNY   92  53  26 S7        29.94R
DAGGETT        MOSUNNY   94  52  24 NW15      29.91S
29 PALMS N     MOSUNNY  101  37  11 NW12      29.94F HX  95
NEEDLES        SUNNY    100  46  16 E3        29.79R HX  96

$$

REGIONAL REPORTS

CITY           SKY/WX    TMP DP  RH WIND       PRES   REMARKS
SANTA BARBARA  MOSUNNY   64  58  80 N6        29.90R
SANDBERG       MOSUNNY   87  47  24 N18       30.14F
LAS VEGAS NV   MOSUNNY   99  16   5 NE10      29.92S
PHOENIX AZ     MOSUNNY   96  49  20 CALM      29.78R
TIJUANA        CLOUDY    63  61  94 CALM      29.95  FOG
ENSENADA NW      N/A     65  32  28 W8        29.88S

$$

OFFSHORE ISLANDS

CITY           SKY/WX    TMP DP  RH WIND       PRES   REMARKS
CATALINA ARPT  PTSUNNY   71  55  56 NW6       29.94R
SAN NICOLAS IS FAIR      62  32  32 W23       29.92F

$$

MARINE AND OFFSHORE BUOY REPORTS

STATION/POSITION SKY/WX   TEMP    WIND        PRES    VSBY  SWELL
                          AIR SEA DIR/SP/G                  HT/PER/DIR
                          (F)     (DEG/KT/KT) (MB)    (MI)  (FT/S/D)
TANNER BANKS               59 61  320/ 16/ 19 1013.5          5/190/15
S CLEMENTE BASIN              64  290/ 14/ 16 1013.5R         5/210/15
SAN NICOLAS IS.               60                N/A           5/200/15
SO. S. ROSA ISLA           58 59  310/ 17/ 21 1013.3R         5/180/15
W. S. BARBARA CH           57 59  300/ 23/ 27 1012.3F         3/190/15
M. S. BARBARA CH           61 63  320/  6/  6 1013.4R         2/250/ 8
S. MONICA BASIN            62 66  250/  6/  8 1012.6R         3/170/14
S PEDRO CHANNEL               63                N/A           2/180/14
CMP PENDLETON NS              65                N/A           3/220/15
OCEANSIDE OFFSHR              65                N/A           3/200/15
TORREY PINES OTR              67                N/A           3/200/14
SAN DIEGO BAY                 71              1013.3R
POINT LOMA SOUTH              67                N/A           3/200/14

$$





USA.gov is the U.S. government's official web portal to all federal, state and local government web resources and services.